Location: Chandrammap?lem
(16.9200°N, 81.0051°E)
Time: 06:24:25
(UTC+00:00)

CZ-3A R/B - Pass Details

Date: 13 August 2024
Orbit: 420 x 34799 km, 24.7° (Epoch: 06 September)

Event Time Altitude Azimuth Distance (km) Brightness Sun altitude
Rises 07:49:14 0° 253° (WSW) 12,883 9.0 73.4°
Reaches altitude 10° 07:57:29 10° 254° (WSW) 13,958 9.3 71.4°
Maximum altitude 09:39:58 41° 270° (W) 28,487 13.3 46.9°
Enters shadow 17:10:34 38° 235° (SW) 3,997 5.9 -51.6°
